Location: Santa Barbara
(34.4500°N, 119.7700°W)
Time: 06:47:15
(UTC-07:00)

Cosmos 1626 Rocket - Visible Passes

Search period start: 23 June 2017 00:00
Search period end: 03 July 2017 00:00
Orbit: 604 x 631 km, 82.5° (Epoch: 22 June)

Date Brightness Start Highest point End Pass type
(mag) Time Alt. Az. Time Alt. Az. Time Alt. Az.
26 Jun 6.6 05:11:01 10° NNE 05:14:07 18° ENE 05:17:11 10° ESE visible
30 Jun 6.5 04:40:32 10° NNE 04:43:37 18° ENE 04:46:41 10° ESE visible
01 Jul 5.4 04:56:32 10° NNE 05:00:35 34° ENE 05:04:37 10° SE visible
02 Jul 4.0 05:13:01 10° N 05:17:28 67° E 05:21:52 10° SSE visible
